Lid_Strength_Index
2 2 2 1 2 2 2 2 1 1 1 1 1 1 1 1 2 2 4 2 2 -2 1 4 4 3 2 3 4 3 6 7 7 7 6 4 6 4 3 4 3 3 3 2 1
2 2 2 2 2 2 2 2 1 1 1 1 1 1 1 1 2 3 0 -2 -3 -3 4 5 4 3 4 5 4 4 6 6 5 4 5 5 5 5 5 5 4 4 2 2 1
2 2 2 2 2 2 2 2 2 1 1 1 1 1 1 1 2 3 -3 -3 -4 -0 3 4 4 4 5 4 4 4 6 5 4 4 4 4 5 4 5 6 4 4 3 2 2
2 2 2 2 2 2 2 2 2 2 1 2 2 1 1 1 7 2 -3 -3 -3 1 3 4 4 5 4 5 4 6 4 5 4 4 4 5 4 5 4 4 3 3 2 2 2
2 2 2 2 2 2 2 2 2 2 2 2 2 1 2 4 4 -1 -3 -3 1 3 4 4 4 3 5 4 4 5 5 5 5 4 4 4 5 5 5 3 3 2 2 2 2
2 2 2 2 2 2 2 2 3 2 2 2 1 1 3 5 1 0 0 1 3 3 4 4 4 3 4 4 5 4 4 5 4 4 4 5 5 5 4 3 3 3 3 2 2
3 2 2 2 2 2 2 3 3 2 2 1 1 2 4 3 1 -0 1 2 3 3 4 3 3 3 3 4 4 4 5 5 4 4 5 4 6 6 3 3 4 4 3 3 2
3 3 3 2 2 2 2 2 2 2 1 1 1 2 4 1 0 1 0 2 3 3 3 3 2 3 3 3 4 5 5 7 5 4 5 5 7 5 3 4 4 4 4 3 3
3 3 3 3 3 2 3 3 2 2 1 1 1 2 4 2 2 1 -0 2 2 3 3 4 3 3 4 5 6 6 8 7 7 4 5 5 6 4 4 4 4 4 4 4 3
3 3 3 3 3 3 3 3 2 2 1 1 1 3 2 3 2 1 0 2 3 3 4 4 4 5 5 6 9 8 8 7 7 6 5 6 6 5 4 5 5 5 4 4 3
4 4 3 3 3 3 4 3 3 3 3 3 3 3 3 1 1 2 1 2 3 4 5 4 5 7 6 6 6 6 7 8 6 5 6 6 6 6 5 5 5 5 5 4 4
4 4 4 3 3 3 3 4 3 2 4 3 3 3 2 2 4 3 2 3 4 5 4 5 7 5 5 5 6 6 7 7 6 6 6 6 6 6 5 5 5 5 5 4 4
4 4 4 3 3 4 4 4 1 1 4 4 3 3 3 2 4 3 3 3 4 5 5 6 6 5 5 6 7 7 7 7 7 6 6 6 7 7 6 5 5 4 4 4 4
4 4 4 3 5 2 2 1 1 1 6 6 4 3 3 2 4 2 2 3 4 6 6 6 5 6 6 7 6 8 6 6 7 8 9 6 10 8 6 6 5 4 4 3 3
4 4 4 5 1 1 1 0 1 1 11 5 4 1 2 4 4 3 2 3 5 6 5 7 6 6 7 6 6 7 6 6 7 7 8 8 9 9 6 7 6 5 4 3 3
4 4 4 4 2 2 1 1 1 7 11 7 4 5 5 4 4 3 3 2 3 5 5 5 4 5 5 5 5 5 6 7 7 7 10 9 9 9 8 7 6 5 4 3 3
4 4 4 2 1 1 0 1 7 9 6 7 6 5 5 6 5 5 5 6 6 8 8 6 6 5 5 6 5 6 7 10 11 10 11 8 9 9 6 5 5 5 4 3 3
5 4 3 1 0 1 1 4 10 8 8 5 6 6 7 5 6 6 6 7 5 6 7 8 10 6 5 6 7 7 7 10 14 12 11 8 10 9 5 4 4 3 3 3 3
5 0 0 -1 -0 -0 3 8 8 8 6 7 6 7 7 6 6 6 6 6 6 5 8 8 9 5 5 5 5 8 9 7 10 9 11 9 8 6 5 5 4 4 3 3 3
1 1 1 -0 -1 1 5 8 7 6 6 6 8 7 8 7 7 7 7 6 6 5 5 7 9 6 6 5 5 6 6 10 8 13 14 10 10 9 7 6 5 4 4 3 3
0 3 1 -1 -0 3 7 6 6 5 5 7 7 8 7 7 6 7 7 6 6 6 5 6 8 8 6 7 8 7 8 8 8 10 13 13 11 6 6 5 5 5 4 4 3
2 5 -0 -1 4 4 6 5 6 6 5 6 5 6 7 7 7 7 7 7 5 5 7 6 7 9 8 6 5 6 7 8 10 11 9 11 10 5 5 4 4 4 4 3 3
3 3 -1 0 6 6 5 5 5 6 6 5 6 6 5 7 9 7 7 5 5 5 7 6 8 11 10 8 6 8 7 7 8 8 10 12 10 5 4 5 4 4 4 4 3
3 5 3 2 3 5 6 6 6 5 6 5 6 5 6 7 6 8 7 6 5 6 5 5 8 9 11 10 7 9 8 7 8 11 10 9 9 6 6 5 5 4 4 3 3
2 5 5 6 5 4 5 5 6 6 5 5 6 6 6 7 7 8 7 6 5 6 5 6 9 8 8 7 7 8 8 8 9 8 10 9 9 7 6 5 5 4 4 4 3
4 5 3 5 5 5 6 6 6 6 6 6 7 6 5 7 6 7 7 6 7 6 6 6 9 8 9 8 8 9 8 8 8 7 8 7 8 5 5 4 4 4 4 4 3
1 1 4 6 6 6 6 6 6 5 5 5 5 6 6 6 5 5 4 5 5 6 7 7 8 9 11 9 9 10 8 8 7 7 7 9 7 5 5 5 5 4 4 4 3